Printer-friendly version

IAU Minor Planet Center

Minor Planet Center

MPEC 2008-B02 : 2008 AG33

The following Minor Planet Electronic Circular may be linked-to from your own Web pages, but must not otherwise be redistributed electronically.


Read MPEC 2008-B01 Read MPEC 2008-B03


M.P.E.C. 2008-B02                                Issued 2008 Jan. 16, 17:14 UT

     The Minor Planet Electronic Circulars contain information on unusual
         minor planets and routine data on comets.  They are published
   on behalf of Commission 20 of the International Astronomical Union by the
          Minor Planet Center, Smithsonian Astrophysical Observatory,
                          Cambridge, MA 02138, U.S.A.

             Prepared using the Tamkin Foundation Computer Network

                              MPC@CFA.HARVARD.EDU
          URL http://www.cfa.harvard.edu/iau/mpc.html  ISSN 1523-6714

                                   2008 AG33

Observations:
     K08A33G* C2008 01 12.50891 14 52 20.46 +07 10 59.6          21.0 V EB002G96
     K08A33G  C2008 01 12.51812 14 52 22.80 +07 10 41.6          20.9 V EB002G96
     K08A33G  C2008 01 12.52737 14 52 25.17 +07 10 22.9          21.1 V EB002G96
     K08A33G  C2008 01 12.53662 14 52 27.48 +07 10 04.9          21.2 V EB002G96
     K08A33G  C2008 01 15.49089 15 05 11.32 +05 30 46.4          20.6 V EB002G96
     K08A33G  C2008 01 15.49890 15 05 13.41 +05 30 30.3          20.6 V EB002G96
     K08A33G  C2008 01 15.50697 15 05 15.46 +05 30 13.8          20.6 V EB002G96
     K08A33G  C2008 01 15.51520 15 05 17.55 +05 29 57.3          20.5 V EB002G96
     K08A33G HC2008 01 16.50631 15 09 32.90 +04 56 21.5                 EB002291
     K08A33G HC2008 01 16.51020 15 09 33.82 +04 56 12.7                 EB002291
     K08A33G  C2008 01 16.51402 15 09 34.78 +04 56 05.5                 EB002291
     K08A33G  C2008 01 16.52194 15 09 36.93 +04 55 48.1          20.7 V EB002G96
     K08A33G  C2008 01 16.52308 15 09 37.15 +04 55 45.8          20.8 V EB002G96
     K08A33G  C2008 01 16.52422 15 09 37.54 +04 55 43.8          21.1 V EB002G96
     K08A33G HC2008 01 16.52469 15 09 37.50 +04 55 44.1                 EB002291
     K08A33G  C2008 01 16.52536 15 09 37.76 +04 55 41.3          21.1 V EB002G96
     K08A33G  C2008 01 16.52855 15 09 38.52 +04 55 35.9                 EB002291
     K08A33G  C2008 01 16.53246 15 09 39.48 +04 55 28.0                 EB002291

Observer details:
291 LPL/Spacewatch II.  Observer R. S. McMillan.  1.8-m f/2.7 reflector + CCD.
G96 Mt. Lemmon Survey.  Observers S. M. Larson, A. D. Grauer, A. Boattini.
    Measurers E. C. Beshore, A. Boattini, G. J. Garradd, A. R. Gibbs,
    A. D. Grauer, R. E. Hill, R. A. Kowalski, S. M. Larson, R. H. McNaught.
    1.5-m reflector + CCD.

Orbital elements:
2008 AG33                                           PHA, Earth MOID = 0.0267 AU
Epoch 2007 Oct. 27.0 TT = JDT 2454400.5                 MPC
M 286.97564              (2000.0)            P               Q
n   0.61734972     Peri.  156.26094     -0.96341182     +0.21477087
a   1.3659932      Node    37.30361     -0.26802548     -0.77174317
e   0.2987833      Incl.   15.34212     -0.00011019     -0.59856992
P   1.60           H   19.3           G   0.15           U   9
Residuals in seconds of arc
080112 G96  0.1-  0.2-    080115 G96  0.1-  0.0     080116 G96  0.3+  0.9-
080112 G96  0.3-  0.2+    080115 G96  0.2-  0.1+    080116 G96  1.8+  0.6-
080112 G96  0.1-  0.0     080116 291  0.2+  0.6+    080116 291  0.8-  0.6+
080112 G96  0.9-  0.5+    080116 291  0.8-  0.3-    080116 G96  0.8+  0.8-
080115 G96  0.9-  0.0     080116 291  1.0-  0.3+    080116 291  0.1-  0.2+
080115 G96  0.1-  0.1+    080116 G96  1.3+  0.9-    080116 291  0.6-  0.3+

Ephemeris:
2008 AG33                a,e,i = 1.37, 0.30, 15                  q = 0.9579
Date    TT    R. A. (2000) Decl.     Delta      r     Elong.  Phase     V
2008 01 15    15 03.07   +05 47.5    0.666    1.024    73.9    67.4    20.8
2008 01 25    15 45.76   +00 05.2    0.662    0.995    71.3    69.6    20.8
2008 02 04    16 28.08   -05 34.9    0.667    0.974    69.1    71.1    20.9
2008 02 14    17 10.37   -10 56.0    0.679    0.961    67.5    71.7    20.9
2008 02 24    17 52.87   -15 43.1    0.698    0.958    66.6    71.4    20.9
2008 03 05    18 35.58   -19 44.4    0.721    0.964    66.3    70.4    21.0
2008 03 15    19 18.07   -22 53.1    0.747    0.980    66.7    68.8    21.0

Sonia Keys                   (C) Copyright 2008 MPC           M.P.E.C. 2008-B02

Read MPEC 2008-B01 Read MPEC 2008-B03


Our Web policy. Index to the CBAT/MPC/ICQ pages.


Valid HTML 4.01!